[[{"header":{"parameterUnit":"m.s-1","parameterCategory":1,"la1":30.2991,"la2":30.254,"lo1":-89.0895,"lo2":-89.0444,"dy":0.0017,"dx":0.0017,"nx":28,"ny":28,"refTime":"2023-10-14T09:00:00:Z","depth":0,"parameterNumber":2,"parameterNumberName":"U-component_of_WINDS"},"data":[0,0,0,0,0,0,0,0,0,0,0,0,0,0,0,0,0,0,0,0,0,0,0,0,0,0,0,0,0,0,0,0,0,0,0,0,0,0,0,0,0,0,0,0,0,0,0,0,0,0,0,0,0,0,0,0,0,0,3.4592,3.4593,0,3.4632,3.4633,3.4633,3.4567,3.4565,3.4563,3.4561,3.4602,3.4605,3.4608,0,0,0,0,0,0,0,0,0,0,0,0,0,3.446,3.4463,3.4592,3.4593,3.4593,3.4632,3.4633,3.4633,3.4568,3.4565,3.4562,3.456,3.4601,3.4604,3.4608,0,0,0,0,0,0,0,0,0,0,0,0,0,3.4511,3.4464,3.4592,3.4565,3.4563,3.4632,3.4633,3.4633,3.4568,3.4565,3.4561,3.4558,3.4599,3.4604,3.4609,3.4706,0,0,3.4623,3.4625,0,0,0,0,0,0,0,0,3.4508,3.4516,3.4569,3.4567,3.4565,3.4591,3.4601,3.4658,3.4569,3.4566,3.4561,3.4557,3.4601,3.4605,3.462,3.4708,3.4709,3.4624,3.4627,3.4629,3.463,0,0,0,0,0,0,0,3.4505,3.4514,3.4608,3.4569,3.4567,3.4552,3.4555,3.4612,3.4602,3.4566,3.4562,3.4567,3.4599,3.4616,3.4621,3.471,3.4624,3.4628,3.4631,3.4633,3.4883,3.4886,0,0,0,0,0,0,3.4504,3.4511,3.4607,3.4609,3.4528,3.4557,3.456,3.4586,3.4601,3.46,3.457,3.4564,3.4609,3.4615,3.4622,3.4739,3.4629,3.4633,3.4636,3.4879,3.4883,3.4888,0,0,0,0,0,0,3.4502,3.4513,3.4605,3.4559,3.4569,3.4563,3.4592,3.4589,3.4605,3.4604,3.4602,3.4589,3.4607,3.4615,3.4686,3.4739,3.4635,3.464,3.4874,3.488,3.4885,3.4972,0,0,0,0,0,0,3.4498,3.4513,3.4549,3.456,3.4572,3.4668,3.4595,3.4592,3.4614,3.4606,3.4621,3.462,3.4605,3.4679,3.4691,3.4744,3.4643,3.487,3.4877,3.4884,3.4965,3.498,3.4994,0,0,0,0,0,3.4494,3.4571,3.4551,3.4563,3.4617,3.4671,3.4678,3.4659,3.4618,3.4655,3.4655,3.462,3.4732,3.4687,3.47,3.4755,3.4866,3.4875,3.4883,3.4958,3.4977,3.4993,0,0,0,0,0,0,3.4566,3.4572,3.455,3.4633,3.4653,3.466,3.4706,3.4679,3.471,3.4702,3.4676,3.4681,3.4758,3.4763,3.4713,3.4851,3.4792,3.4804,3.4845,3.4863,3.4877,3.4875,3.4647,0,0,0,0,0,3.4591,3.4635,3.4638,3.4711,3.4722,3.4713,3.4735,3.4719,3.4738,3.4746,3.475,3.477,3.481,3.4836,3.4873,3.4965,3.4969,3.501,3.5024,3.5036,3.5046,3.5098,3.5117,3.4915,3.4915,3.4915,0,0,3.4645,3.4654,3.4682,3.4726,3.4739,3.4785,3.472,3.4771,3.4805,3.4753,3.4821,3.4826,3.4846,3.4929,3.4966,3.4936,3.5103,3.5047,3.5056,3.506,3.5109,3.5128,3.5145,3.4921,3.492,3.4919,0,0,3.4766,3.4776,3.484,3.4854,3.4875,3.4869,3.4885,3.4897,3.4898,3.4966,3.4929,3.497,3.5038,3.5055,3.5073,3.5204,3.5174,3.5217,3.5292,3.5343,3.5359,3.5373,3.5422,3.544,3.5227,3.5227,3.5227,0,3.4829,3.4897,3.4875,3.493,3.4952,3.4908,3.4973,3.4988,3.502,3.5036,3.5002,3.5089,3.51,3.5188,3.522,3.5235,3.5253,3.5215,3.5359,3.5373,3.5385,3.5432,3.545,3.5232,3.5232,3.5231,3.5231,0,3.4976,3.5024,3.5073,3.5106,3.5132,3.5192,3.518,3.521,3.5192,3.519,3.5262,3.5273,3.5312,3.5332,3.5314,3.5418,3.5399,3.5363,3.5303,3.541,3.5454,3.5471,3.524,3.5238,3.5236,3.5235,0,0,3.5142,3.5164,3.5183,3.5198,3.5219,3.5257,3.5315,3.5354,3.5381,3.5405,3.5455,3.5515,3.5483,3.5503,3.5487,3.5532,3.5638,3.549,3.549,3.5519,3.5756,3.5785,3.5806,3.5618,3.5621,3.5624,3.5755,0,3.5264,3.5365,3.5349,3.5447,3.5493,3.5453,3.5505,3.5524,3.5524,3.5563,3.5563,3.5607,3.5559,3.5572,3.5614,3.5616,3.5686,3.5606,3.5665,3.5668,3.5663,3.5828,3.5857,3.5981,3.5772,3.5775,3.5777,0,3.542,3.5451,3.5555,3.5571,3.559,3.5636,3.5672,3.571,3.5732,3.5729,3.5753,3.573,3.579,3.5729,3.5813,3.5759,3.5782,3.5787,3.5792,3.5797,3.5729,3.584,3.6019,3.6039,3.5803,3.5801,3.5799,0,3.5534,3.5602,3.5673,3.5687,3.5708,3.5742,3.5752,3.5771,3.5796,3.5828,3.5845,3.5883,3.5904,3.5934,3.5923,3.5879,3.601,3.5947,3.6011,3.6011,3.604,3.6039,3.6228,3.6053,3.6053,3.6053,3.6052,0,3.5673,3.5738,3.5725,3.5769,3.5842,3.5823,3.5895,3.5901,3.5918,3.5964,3.5931,3.5974,3.5956,3.5999,3.599,3.6062,3.6071,3.6072,3.6069,3.6076,3.6076,3.6091,3.6083,3.6057,3.6056,3.6055,3.6055,0,3.5812,3.5806,3.5881,3.5895,3.5901,3.5954,3.5966,3.6009,3.6007,3.6065,3.6078,3.6075,3.6124,3.6116,3.6169,3.6163,3.6254,3.624,3.6247,3.6244,3.6309,3.6304,3.6516,3.6544,3.635,3.6351,3.6353,0,3.5902,3.5952,3.5972,3.6,3.6014,3.6059,3.6086,3.6069,3.6099,3.6129,3.6168,3.6214,3.625,3.633,3.6334,3.6376,3.6363,3.6435,3.6369,3.6375,3.6367,3.6365,3.6371,3.6448,3.645,3.6452,3.6453,0,3.6063,3.6058,3.6097,3.6137,3.617,3.62,3.6226,3.6252,3.6238,3.6273,3.6323,3.6351,3.6407,3.6454,3.6493,3.6504,3.6478,3.6474,3.6491,3.6499,3.6502,3.6504,3.6284,3.6469,3.6468,3.6467,3.6466,3.6465,3.6181,3.6225,3.6247,3.6293,3.6311,3.6338,3.6379,3.6384,3.6425,3.647,3.6458,3.6515,3.6538,3.6589,3.6605,3.665,3.6624,3.6648,3.6655,3.6661,3.667,3.6494,3.6657,3.6657,3.6656,3.6656,3.6655,0,3.6342,3.6355,3.6397,3.6437,3.6474,3.6446,3.6475,3.6508,3.6559,3.6582,3.6619,3.6678,3.6725,3.6733,3.6777,3.6812,3.6801,3.6824,3.6822,3.6826,3.669,3.6672,3.6833,3.6833,3.6833,3.6833,3.6833,3.6833,3.643,3.6503,3.6502,3.6584,3.6596,3.6653,3.6672,3.6698,3.6717,3.6784,3.6823,3.6828,3.6846,3.6892,3.6934,3.6935,3.6954,3.6983,3.698,3.6853,3.6835,3.6818,3.6801,3.6986,3.6987,3.7112,3.7113,3.7114]},{"header":{"parameterUnit":"m.s-1","parameterCategory":1,"la1":30.2991,"la2":30.254,"lo1":-89.0895,"lo2":-89.0444,"dy":0.0017,"dx":0.0017,"nx":28,"ny":28,"refTime":"2023-10-14T09:00:00:Z","depth":0,"parameterNumber":3,"parameterNumberName":"V-component_of_WINDS"},"data":[0,0,0,0,0,0,0,0,0,0,0,0,0,0,0,0,0,0,0,0,0,0,0,0,0,0,0,0,0,0,0,0,0,0,0,0,0,0,0,0,0,0,0,0,0,0,0,0,0,0,0,0,0,0,0,0,0,0,-3.1196,-3.1197,0,-3.1264,-3.1264,-3.1265,-3.1265,-3.1264,-3.1263,-3.1262,-3.1329,-3.1331,-3.1334,0,0,0,0,0,0,0,0,0,0,0,0,0,-3.1065,-3.1067,-3.1196,-3.1197,-3.1197,-3.1263,-3.1264,-3.1265,-3.1265,-3.1264,-3.1263,-3.1262,-3.1328,-3.1331,-3.1334,0,0,0,0,0,0,0,0,0,0,0,0,0,-3.1126,-3.1068,-3.1196,-3.1205,-3.1207,-3.1263,-3.1264,-3.1266,-3.1265,-3.1264,-3.1262,-3.1261,-3.1327,-3.1331,-3.1335,-3.1385,0,0,-3.1347,-3.1348,0,0,0,0,0,0,0,0,-3.1122,-3.1131,-3.1203,-3.1205,-3.1207,-3.1254,-3.1243,-3.1306,-3.1265,-3.1243,-3.1262,-3.1261,-3.1305,-3.1311,-3.1326,-3.1388,-3.1391,-3.1347,-3.1349,-3.1351,-3.1352,0,0,0,0,0,0,0,-3.1118,-3.1128,-3.1222,-3.1204,-3.1206,-3.1206,-3.1213,-3.1255,-3.128,-3.1245,-3.1245,-3.1253,-3.1306,-3.1322,-3.1328,-3.1392,-3.1347,-3.135,-3.1353,-3.1354,-3.1501,-3.1502,0,0,0,0,0,0,-3.1112,-3.1124,-3.122,-3.1224,-3.116,-3.1209,-3.1217,-3.124,-3.128,-3.1285,-3.1254,-3.1253,-3.1316,-3.1323,-3.133,-3.1393,-3.1351,-3.1355,-3.1357,-3.1499,-3.1501,-3.1503,0,0,0,0,0,0,-3.1109,-3.1121,-3.1218,-3.1175,-3.1187,-3.1213,-3.1239,-3.1242,-3.1259,-3.1287,-3.1292,-3.1267,-3.1316,-3.1325,-3.1372,-3.1395,-3.1356,-3.136,-3.1497,-3.15,-3.1502,-3.1518,0,0,0,0,0,0,-3.1106,-3.112,-3.1139,-3.1175,-3.1189,-3.1259,-3.124,-3.1245,-3.1266,-3.1265,-3.13,-3.1304,-3.1315,-3.1366,-3.1376,-3.14,-3.1363,-3.1495,-3.1498,-3.1501,-3.1515,-3.152,-3.1525,0,0,0,0,0,-3.1101,-3.114,-3.114,-3.1152,-3.1214,-3.126,-3.1268,-3.128,-3.1268,-3.1288,-3.1306,-3.1303,-3.1391,-3.1371,-3.1382,-3.1407,-3.1494,-3.1498,-3.1501,-3.1513,-3.1519,-3.1524,0,0,0,0,0,0,-3.1105,-3.1145,-3.1146,-3.1197,-3.1226,-3.126,-3.1285,-3.1286,-3.1318,-3.1315,-3.1329,-3.1337,-3.1384,-3.14,-3.1377,-3.1459,-3.1441,-3.1447,-3.1446,-3.1453,-3.1457,-3.1452,-3.1366,0,0,0,0,0,-3.1112,-3.1147,-3.1179,-3.1222,-3.1236,-3.1259,-3.1279,-3.1286,-3.1316,-3.1327,-3.1349,-3.1377,-3.1411,-3.1433,-3.1465,-3.1518,-3.1526,-3.1541,-3.1546,-3.1549,-3.1554,-3.1584,-3.1591,-3.1514,-3.1514,-3.1514,0,0,-3.1127,-3.1153,-3.1174,-3.1224,-3.1246,-3.1281,-3.1268,-3.1306,-3.1332,-3.1332,-3.1379,-3.1396,-3.1428,-3.1479,-3.1502,-3.1494,-3.1577,-3.1554,-3.1556,-3.1559,-3.1588,-3.1596,-3.1602,-3.1517,-3.1516,-3.1516,0,0,-3.1172,-3.1195,-3.1233,-3.1257,-3.1292,-3.1307,-3.1316,-3.1351,-3.1363,-3.141,-3.1412,-3.1443,-3.1501,-3.1524,-3.1544,-3.16,-3.1599,-3.161,-3.1634,-3.1664,-3.167,-3.1675,-3.1695,-3.1703,-3.1615,-3.1615,-3.1615,0,-3.1185,-3.1238,-3.1253,-3.1291,-3.1313,-3.1317,-3.1357,-3.1378,-3.1422,-3.1437,-3.1428,-3.1502,-3.1524,-3.158,-3.1594,-3.161,-3.1621,-3.1606,-3.1668,-3.1673,-3.1679,-3.1698,-3.1706,-3.1616,-3.1616,-3.1616,-3.1616,0,-3.1254,-3.1291,-3.1318,-3.1362,-3.1387,-3.1425,-3.1445,-3.1469,-3.1475,-3.1491,-3.154,-3.1567,-3.1606,-3.162,-3.1625,-3.1678,-3.1672,-3.1665,-3.1647,-3.1687,-3.1706,-3.1713,-3.1618,-3.1617,-3.1617,-3.1617,0,0,-3.1301,-3.1354,-3.1363,-3.1384,-3.1424,-3.1453,-3.1492,-3.1531,-3.1552,-3.1582,-3.1615,-3.1666,-3.166,-3.1682,-3.1691,-3.1717,-3.176,-3.1707,-3.1708,-3.1716,-3.1821,-3.1825,-3.1834,-3.176,-3.1762,-3.1763,-3.1818,0,-3.135,-3.142,-3.1435,-3.1496,-3.1531,-3.1536,-3.157,-3.1599,-3.1615,-3.1647,-3.1665,-3.1701,-3.1691,-3.1704,-3.173,-3.1749,-3.1781,-3.1746,-3.1791,-3.1792,-3.1782,-3.1843,-3.1848,-3.1899,-3.1825,-3.1827,-3.1828,0,-3.1415,-3.1449,-3.1514,-3.1551,-3.1566,-3.1597,-3.1635,-3.1665,-3.1698,-3.1708,-3.1734,-3.174,-3.1782,-3.1763,-3.182,-3.1795,-3.1815,-3.1827,-3.183,-3.1834,-3.1812,-3.1849,-3.1915,-3.1922,-3.1839,-3.1838,-3.1837,0,-3.1444,-3.1505,-3.1552,-3.1569,-3.1614,-3.1635,-3.1655,-3.1686,-3.1709,-3.1743,-3.1758,-3.1795,-3.1816,-3.1844,-3.1861,-3.1845,-3.1917,-3.1899,-3.1926,-3.1926,-3.194,-3.1939,-3.201,-3.1953,-3.1953,-3.1953,-3.1953,0,-3.1496,-3.1535,-3.1566,-3.1594,-3.1639,-3.1656,-3.17,-3.1719,-3.1747,-3.178,-3.1787,-3.1817,-3.1837,-3.187,-3.1883,-3.1929,-3.1938,-3.1947,-3.195,-3.1946,-3.1945,-3.1959,-3.1956,-3.1955,-3.1955,-3.1954,-3.1954,0,-3.1535,-3.1556,-3.1608,-3.1647,-3.1657,-3.1688,-3.1721,-3.175,-3.1767,-3.1808,-3.1819,-3.1846,-3.1886,-3.1906,-3.1954,-3.1963,-3.2015,-3.2016,-3.2004,-3.2005,-3.2032,-3.2029,-3.2113,-3.2126,-3.2061,-3.2062,-3.2063,0,-3.1566,-3.1597,-3.164,-3.1663,-3.1683,-3.172,-3.1744,-3.1763,-3.1788,-3.1829,-3.1852,-3.1893,-3.1926,-3.1989,-3.2013,-3.2051,-3.2052,-3.208,-3.2058,-3.2054,-3.2053,-3.2051,-3.2054,-3.2083,-3.2084,-3.2084,-3.2084,0,-3.1621,-3.1631,-3.1666,-3.1706,-3.1735,-3.1767,-3.1798,-3.1816,-3.184,-3.1868,-3.191,-3.1936,-3.1987,-3.2027,-3.2067,-3.2087,-3.209,-3.2092,-3.21,-3.2096,-3.2088,-3.2093,-3.2015,-3.2089,-3.2089,-3.2088,-3.2088,-3.2088,-3.1657,-3.1685,-3.172,-3.1759,-3.1785,-3.1815,-3.1844,-3.1866,-3.1901,-3.1945,-3.1954,-3.1998,-3.2032,-3.2086,-3.2107,-3.2142,-3.2136,-3.2148,-3.2151,-3.2153,-3.2155,-3.2083,-3.2149,-3.2149,-3.2149,-3.2149,-3.2149,0,-3.1711,-3.1735,-3.1771,-3.1816,-3.1847,-3.1849,-3.1884,-3.191,-3.1949,-3.1981,-3.2014,-3.2062,-3.2102,-3.213,-3.217,-3.2193,-3.2195,-3.2203,-3.2201,-3.2205,-3.2158,-3.2147,-3.22,-3.22,-3.22,-3.22,-3.22,-3.22,-3.1743,-3.1791,-3.1805,-3.1867,-3.189,-3.1934,-3.1954,-3.1982,-3.2007,-3.2061,-3.2095,-3.2113,-3.2143,-3.2186,-3.2223,-3.223,-3.2245,-3.2252,-3.2259,-3.2214,-3.2209,-3.2203,-3.2193,-3.2255,-3.2255,-3.2304,-3.2304,-3.2305]}]]